Theta_e
314 313 312 313 312 310 310 308 298 314 316 302 304 298 302 303 304 306 305 305 305 304 306 305 301 302 305 310 309 303 304 302 297 301 308 308 304 299 300 294 294 297 296 297
313 312 313 312 311 310 311 304 304 317 313 297 299 302 303 304 303 303 304 303 306 308 305 301 306 308 311 312 311 306 306 298 293 297 301 308 306 307 304 301 299 295 293 297
313 312 312 312 311 311 310 306 300 308 310 308 302 299 299 300 306 304 305 304 305 304 305 311 307 309 312 314 312 318 316 303 298 294 299 304 304 306 307 302 294 296 298 305
312 312 312 312 311 311 310 307 303 308 300 301 302 302 302 300 300 304 305 303 303 304 301 306 306 310 311 311 312 311 310 299 301 303 306 308 306 306 304 301 301 298 305 305
312 311 310 310 311 311 309 303 305 307 304 305 302 301 301 303 303 302 300 301 306 306 303 308 305 307 306 305 306 306 307 298 300 300 305 304 303 305 306 306 308 308 310 306
312 311 311 312 312 311 308 311 312 309 304 304 302 300 303 306 305 306 306 306 305 305 309 314 313 313 313 309 305 307 304 302 298 294 303 302 296 305 309 311 311 310 304 307
312 311 310 313 313 312 312 313 311 305 300 304 302 303 306 306 306 304 306 306 303 308 319 316 314 311 310 310 309 312 304 301 300 294 297 289 304 311 314 310 311 312 312 314
311 312 311 313 313 313 311 313 308 307 301 305 306 307 306 305 307 308 307 310 316 320 316 307 304 303 304 306 309 308 307 303 296 293 292 299 305 307 307 306 306 312 311 313
311 311 313 313 313 314 312 313 313 306 305 304 309 307 309 302 303 306 311 321 321 318 310 303 298 296 301 300 305 313 310 307 302 296 292 291 305 311 314 313 300 313 312 311
311 311 314 314 314 314 313 311 313 309 306 310 310 306 305 313 309 304 307 313 312 315 305 299 297 297 304 297 301 302 300 299 296 294 292 301 309 312 315 298 300 311 312 310
312 312 315 315 314 315 312 310 312 312 309 312 314 313 308 311 311 307 312 310 310 308 302 301 299 298 301 301 304 303 298 298 298 298 295 293 311 312 304 306 309 311 310 310
312 314 315 315 314 314 312 306 314 317 309 312 318 316 315 317 316 312 312 310 312 310 305 306 306 304 304 304 298 306 300 306 302 303 302 308 311 309 311 312 310 309 308 308
311 314 315 315 315 314 312 309 310 314 308 306 310 312 317 321 320 322 312 316 316 317 321 310 306 302 306 299 303 304 312 314 304 305 307 308 309 309 309 310 309 309 309 308
311 313 314 314 314 314 312 307 309 312 309 300 308 318 316 320 322 322 322 317 317 316 320 309 307 303 309 302 305 306 309 312 307 305 307 309 309 310 310 311 311 310 311 311
313 314 314 314 313 311 310 310 311 315 309 302 303 314 317 318 319 319 320 315 312 311 313 309 306 308 308 308 307 307 312 308 304 303 308 307 306 313 316 314 313 314 313 314
314 314 313 312 310 310 309 306 314 311 314 305 301 311 314 315 317 315 318 316 313 312 312 310 314 315 311 304 302 308 310 311 311 308 312 311 314 315 315 313 313 315 315 316
313 312 311 310 310 309 305 303 307 307 311 305 301 303 312 316 314 313 314 316 313 312 310 309 310 308 307 305 301 311 315 316 316 315 314 311 313 310 313 314 314 315 315 316
311 310 310 309 309 309 305 312 309 309 309 306 300 302 307 314 305 305 314 309 309 309 308 307 308 310 307 303 308 309 313 316 315 315 316 314 313 313 313 314 314 313 312 313
309 309 309 308 306 302 305 314 312 314 310 302 303 300 298 312 307 309 309 310 302 310 302 303 304 301 299 307 308 307 311 313 312 315 315 314 312 312 313 310 309 307 306 309
309 307 303 298 304 314 312 306 303 301 305 308 301 306 301 307 307 305 306 306 303 299 303 306 300 303 310 311 312 314 314 316 315 312 311 312 310 311 310 306 307 307 307 308
304 301 301 308 314 306 302 296 296 296 295 301 302 304 302 309 302 303 307 300 303 297 301 301 298 299 309 314 310 313 316 316 316 317 313 313 311 308 306 307 308 309 308 307
302 302 305 310 305 302 296 293 296 294 292 298 297 299 308 307 311 304 306 302 303 298 307 300 297 304 312 315 315 317 317 315 313 316 315 313 310 309 308 308 307 307 308 309
306 302 300 299 299 291 291 287 291 293 297 300 301 300 307 310 311 305 304 301 298 308 300 299 303 309 312 316 317 315 314 313 313 313 311 310 310 311 309 307 309 308 308 309
298 296 287 292 291 294 295 294 296 300 300 299 301 305 303 307 304 304 299 302 303 297 295 299 306 309 312 315 317 315 314 314 310 309 309 309 309 308 310 310 309 308 307 308
296 297 289 293 297 299 299 300 300 302 305 302 304 304 304 303 301 304 302 299 296 296 298 307 311 313 314 314 313 312 311 309 309 309 309 309 309 308 308 309 308 308 307 306
297 298 297 298 298 297 298 299 300 304 303 308 306 303 301 299 301 299 298 297 294 302 309 313 314 315 312 312 312 311 311 311 310 310 310 310 309 308 308 307 307 306 306 306
296 297 303 301 301 300 302 303 302 307 304 302 304 298 297 303 299 298 301 301 307 310 313 315 315 313 312 313 312 311 312 311 311 311 311 310 310 310 307 305 306 306 307 309
Wind_Speed
15 14 12 16 13 14 5 3 6 9 13 11 9 12 15 15 19 19 9 5 5 7 10 5 9 11 11 12 6 9 3 5 2 4 6 9 7 6 4 6 6 1 4 4
7 13 16 20 14 15 5 4 6 6 15 12 10 12 20 21 20 20 4 5 5 7 6 4 2 6 8 12 8 4 3 2 3 10 8 9 5 9 1 3 4 2 3 3
11 17 18 20 19 19 3 3 4 3 9 9 14 15 16 18 20 19 6 6 7 8 8 4 5 7 5 12 7 4 6 3 6 5 2 4 3 8 8 5 4 2 2 5
15 15 15 13 13 9 2 3 5 3 6 13 13 9 8 17 17 4 4 7 7 6 1 4 3 3 4 9 2 3 5 3 2 2 5 7 5 4 9 3 1 4 5 9
16 17 14 11 10 10 3 4 3 5 7 8 11 10 11 16 13 9 11 6 6 7 5 1 10 6 5 5 2 4 3 1 5 6 6 8 5 9 10 12 11 15 11 8
13 12 11 11 12 9 3 2 4 4 4 6 7 11 12 11 9 7 11 8 4 7 3 10 11 8 4 4 3 3 4 3 3 3 6 8 6 13 16 16 19 9 10 4
16 17 15 11 12 12 3 3 3 3 5 6 8 15 14 12 6 8 12 7 6 8 10 12 12 13 15 15 12 4 5 4 3 3 5 2 2 13 20 23 16 15 13 13
19 15 14 11 9 8 3 2 3 4 3 4 6 13 13 9 6 1 6 4 2 5 3 6 4 5 5 6 8 5 5 4 0 3 3 3 10 9 5 5 7 11 8 9
20 12 10 10 9 6 1 4 1 2 5 5 10 6 10 1 3 4 1 6 5 7 1 3 5 5 7 7 9 6 5 3 4 2 3 2 3 4 8 2 3 9 10 10
19 16 9 9 8 7 1 4 5 6 2 3 7 6 6 9 5 2 2 3 3 6 3 2 2 4 3 6 7 5 3 1 4 4 3 5 6 12 6 2 2 5 7 7
17 17 11 6 5 5 3 6 11 3 2 3 6 9 11 8 5 4 6 3 4 3 2 1 3 1 2 5 3 7 7 4 1 4 1 4 10 2 4 1 5 5 7 7
17 15 13 8 6 5 4 4 6 2 3 3 7 15 17 5 4 2 2 2 4 3 2 4 4 5 5 4 3 3 5 2 6 4 5 3 4 5 5 6 6 4 6 6
17 15 12 9 6 6 2 4 5 4 3 4 5 3 9 6 2 3 2 2 5 6 7 4 1 5 2 3 3 4 4 3 6 5 5 6 6 5 7 8 6 6 6 5
17 14 11 10 8 4 2 3 7 7 3 3 4 5 4 3 6 4 4 4 4 4 4 3 3 3 2 2 3 3 1 4 6 6 7 8 6 6 7 7 7 7 8 7
17 14 11 9 7 6 4 6 8 5 2 4 3 7 3 1 5 5 8 8 7 3 4 3 3 2 2 3 4 5 3 6 5 5 13 5 8 7 7 4 5 6 8 7
17 15 13 11 11 6 3 3 3 7 6 3 3 4 3 3 4 5 1 10 11 10 7 4 4 5 3 3 4 3 1 2 3 3 10 9 9 6 9 8 7 7 8 7
16 14 13 12 9 2 1 3 5 11 5 2 1 4 2 0 3 4 2 9 5 4 3 4 4 1 4 3 4 6 4 5 7 15 13 6 7 7 8 7 5 9 8 7
16 16 13 10 7 1 4 2 8 4 3 3 4 2 1 4 2 3 2 2 2 4 3 3 4 2 2 5 5 7 6 8 12 13 8 8 9 8 7 6 6 9 7 7
19 17 11 3 1 2 4 7 5 3 2 3 3 2 2 2 2 3 4 0 1 2 1 2 5 0 0 15 16 13 7 9 13 11 14 13 9 8 6 4 5 8 7 7
17 3 2 1 3 7 2 5 2 2 4 4 3 4 6 4 3 1 3 1 1 2 5 2 2 4 16 15 13 13 8 7 3 11 8 10 8 7 6 8 7 7 6 7
1 3 3 1 7 1 2 3 3 4 4 4 4 7 4 3 3 7 4 2 2 3 5 5 2 4 9 16 11 12 16 9 5 7 4 8 9 9 8 8 7 7 8 6
1 2 4 3 2 3 5 5 4 5 5 4 6 6 3 2 3 4 5 1 1 2 1 1 1 3 13 18 20 16 14 16 15 12 4 8 10 9 8 8 8 7 6 7
1 2 7 5 4 6 9 9 6 5 4 5 4 4 4 3 3 3 2 2 3 5 2 1 3 5 8 16 17 15 13 14 14 11 10 11 10 9 9 8 7 8 7 8
3 5 4 6 6 7 6 7 5 5 4 5 5 2 3 3 2 4 3 4 1 3 5 5 5 6 8 15 15 16 14 14 14 13 12 12 10 8 8 7 7 7 10 6
3 4 5 7 7 5 6 7 4 5 4 5 3 4 2 2 3 2 5 4 4 4 2 4 5 7 9 16 12 15 14 13 11 11 11 11 10 8 6 7 9 10 8 7
3 6 6 5 6 5 6 8 4 4 3 4 4 5 3 3 2 3 6 4 4 3 3 5 8 11 13 11 12 11 12 11 10 10 9 10 9 7 8 9 7 6 7 7
4 5 5 7 1 2 3 5 4 4 3 4 3 4 1 4 4 7 4 3 3 6 5 5 11 12 11 11 14 13 12 13 12 9 10 8 7 7 7 7 5 6 5 4
Wind_Direction
249 206 194 172 145 142 168 251 221 205 177 196 210 221 231 253 269 277 267 301 287 286 312 247 208 193 197 176 125 130 133 116 328 265 292 210 194 206 164 114 302 77 170 10
198 192 162 146 148 157 190 254 249 297 178 199 193 228 239 244 251 261 229 233 253 285 304 51 5 110 55 86 76 84 27 69 36 332 335 13 17 343 257 139 99 179 114 255
153 151 149 152 162 208 256 254 223 309 214 194 201 209 226 245 248 256 274 285 267 303 307 84 70 51 56 64 89 100 82 111 147 178 194 204 316 343 353 57 84 272 50 45
148 145 142 151 169 165 233 221 201 186 272 190 222 250 254 232 241 217 252 298 255 265 351 86 75 317 12 76 109 91 91 115 27 274 215 185 262 297 308 326 295 122 88 65
156 154 156 176 145 149 244 310 353 17 297 322 220 235 246 250 236 161 238 247 244 283 263 143 198 150 11 73 180 88 25 114 59 353 331 303 240 209 244 269 1 75 95 57
158 158 167 154 160 181 231 285 306 192 259 286 231 224 232 246 202 230 212 237 205 267 272 114 106 105 53 99 356 118 104 89 72 264 341 348 357 331 92 76 44 52 60 9
162 174 194 170 181 202 339 26 315 10 307 293 209 225 231 246 241 199 202 224 202 249 118 90 80 84 71 42 352 323 105 82 71 258 353 297 112 31 79 82 57 33 38 28
168 178 189 171 186 224 285 341 14 305 303 320 322 335 264 212 250 9 167 211 320 33 331 89 62 21 46 77 235 262 78 110 127 150 210 181 19 354 19 51 64 35 53 16
179 169 165 166 190 161 145 300 192 270 309 1 339 321 298 211 185 129 119 60 16 46 2 111 155 178 157 177 181 137 88 52 113 271 212 288 31 303 305 327 73 23 39 26
191 178 162 181 170 138 143 272 286 261 258 337 35 4 314 327 354 206 107 73 36 44 25 138 201 241 200 161 130 111 74 228 204 277 247 100 316 315 272 320 192 28 59 22
184 171 156 160 139 124 213 265 271 280 342 225 64 2 334 332 13 355 332 55 348 47 48 19 237 80 238 79 77 151 154 112 31 11 24 151 325 341 81 86 65 45 58 50
167 148 140 162 146 136 72 297 340 275 264 230 143 179 234 287 210 278 3 135 289 226 154 43 17 30 16 98 37 81 58 229 135 70 147 145 308 116 97 72 87 60 91 62
158 136 142 146 170 101 29 300 313 305 255 288 154 63 310 120 145 243 118 92 355 331 349 113 131 82 347 44 116 137 80 297 96 119 151 145 127 130 112 125 142 133 120 134
144 133 142 151 139 142 345 313 300 306 304 275 81 199 209 334 168 97 90 138 323 255 282 92 109 110 188 177 154 102 266 104 118 82 135 121 151 164 156 154 159 163 173 178
138 137 146 129 122 68 314 279 276 275 330 334 328 305 174 335 313 43 70 18 2 296 340 140 131 204 152 166 140 66 12 166 156 193 163 149 156 165 201 156 122 82 84 64
133 138 136 127 89 42 337 294 46 14 338 343 309 275 203 200 283 348 207 113 229 266 256 90 102 192 111 139 88 324 244 45 83 176 132 125 158 159 103 108 132 130 112 109
128 130 125 116 112 100 248 324 300 331 316 295 236 253 290 102 360 339 265 230 256 16 345 62 119 67 74 91 102 178 108 93 116 113 125 128 115 117 106 114 115 110 106 99
129 123 119 116 118 55 328 290 244 257 288 288 284 166 224 175 79 299 236 303 321 343 333 42 97 72 130 74 127 162 162 116 129 137 131 108 108 107 146 183 172 114 115 121
126 119 124 82 59 81 250 277 293 245 266 294 301 101 242 239 162 307 320 204 171 235 63 325 88 139 360 162 164 177 167 162 148 150 127 131 140 167 171 128 114 109 102 102
121 84 105 139 212 217 280 324 242 235 221 217 232 104 263 187 181 101 265 235 187 122 238 120 81 40 130 154 159 158 154 126 310 123 137 149 158 161 112 97 85 88 96 95
81 142 184 150 128 144 164 227 228 209 232 221 210 213 232 218 193 172 214 199 181 143 273 118 168 125 162 156 145 156 160 155 156 160 150 135 134 124 113 96 90 78 75 75
332 298 306 119 186 217 202 200 245 193 219 206 180 246 238 144 91 65 360 7 38 156 167 23 94 232 158 156 162 159 139 129 114 116 224 119 98 104 103 99 93 87 89 66
183 176 177 181 187 196 194 186 198 199 190 183 142 204 168 69 75 58 15 240 239 119 94 229 136 129 103 122 128 130 131 137 140 148 112 93 85 82 98 101 96 95 84 111
232 213 191 193 194 208 224 184 168 219 189 167 168 148 153 126 117 147 229 192 104 227 189 164 165 152 128 129 138 139 145 137 119 107 108 98 91 79 67 76 104 110 116 108
256 247 217 216 228 196 214 198 188 229 147 136 138 50 351 141 158 193 45 239 203 222 118 146 139 126 106 124 119 116 118 117 119 113 110 113 106 99 98 78 89 98 113 102
249 241 264 203 235 197 210 221 172 184 173 103 176 134 213 161 170 175 204 229 188 102 108 132 114 100 120 121 118 115 115 113 109 102 107 113 113 122 118 107 85 79 107 108
252 257 285 280 245 268 132 122 148 160 161 169 122 70 169 312 254 179 218 75 97 113 104 82 114 123 124 118 115 115 112 109 103 98 95 103 116 111 105 113 131 128 118 127